EHI
0 0 0 0 0 0 0 0 0 0 0 0 0 0 0 0 0 0 2 6 11 20 35 52 65 70 65 57 49 42 36 32 29 24 18 13 8 2 0 0 0 0 0 0 0 0 0 0 0
0 0 0 0 0 0 0 0 0 0 0 0 0 0 0 0 0 0 3 10 16 23 36 52 64 69 66 58 47 38 34 30 28 23 16 10 6 2 0 0 0 0 0 0 0 0 0 0 0
0 0 0 0 0 0 0 0 0 0 0 0 0 0 0 0 0 1 6 16 22 26 34 48 60 66 65 57 46 36 31 28 25 20 13 7 4 2 1 0 1 1 0 0 0 0 0 0 0
0 0 0 0 0 0 0 0 0 0 0 0 0 0 0 0 0 3 9 18 23 25 30 41 52 57 57 54 47 37 30 25 20 15 9 4 3 3 1 1 1 1 0 0 0 0 0 0 0
0 0 0 0 0 0 0 0 0 0 0 0 0 0 0 1 3 6 10 13 18 21 26 35 43 46 48 50 46 37 28 21 16 11 5 2 2 3 2 1 1 1 0 0 0 0 0 0 0
0 0 0 0 0 0 0 0 0 0 0 0 1 1 2 3 6 8 8 8 12 17 23 30 35 37 41 45 43 34 25 18 14 10 5 3 3 3 2 1 1 1 0 0 0 0 0 0 0
0 0 0 0 0 0 0 0 0 0 0 0 1 2 2 3 6 7 6 5 9 14 20 25 29 30 34 38 36 28 21 16 13 9 5 3 3 3 2 0 0 0 0 0 0 0 0 0 0
0 0 0 0 0 0 0 0 0 0 0 0 1 2 2 3 6 7 6 6 9 13 17 21 22 23 26 30 28 21 16 12 9 5 2 1 2 3 2 0 0 0 0 0 0 0 0 0 0
0 0 0 0 0 0 0 0 0 0 0 0 1 2 3 4 6 8 7 7 8 10 13 16 17 17 19 21 20 16 11 7 5 2 0 0 1 1 1 0 0 0 0 0 0 0 0 0 0
0 0 0 0 0 0 0 0 0 0 0 0 1 2 3 5 6 7 6 6 6 7 9 12 12 13 15 16 16 12 8 5 3 1 0 0 0 0 0 0 0 0 0 0 0 0 0 0 0
0 0 0 0 0 0 0 0 0 0 0 0 1 1 3 4 4 4 4 4 4 5 7 8 8 8 11 13 14 10 6 5 4 1 0 0 0 0 0 0 0 0 0 0 0 0 0 0 0
0 0 0 0 0 0 0 0 0 0 0 0 0 1 2 3 3 3 2 2 2 3 5 5 5 5 6 8 9 7 4 4 3 1 0 0 0 0 0 0 0 0 0 0 0 0 0 0 0
0 0 0 0 0 0 0 0 0 0 0 0 0 1 2 3 4 4 3 1 0 1 3 3 3 3 2 3 3 3 2 2 2 1 0 0 0 0 0 0 0 0 0 0 0 0 0 0 0
0 0 0 0 0 0 0 0 0 0 0 0 0 1 2 3 4 4 3 1 0 0 1 2 2 2 1 0 0 0 1 1 1 0 0 0 0 0 0 0 0 0 0 0 0 0 0 0 0
0 0 0 0 0 0 0 0 0 0 0 0 0 0 1 2 3 3 1 0 0 0 0 1 1 1 0 0 0 0 0 0 0 0 0 0 0 0 0 0 0 0 0 0 0 0 0 0 0
0 0 0 0 0 0 0 0 0 0 0 0 0 0 0 1 1 1 1 0 0 0 0 0 0 0 0 0 0 0 0 0 0 0 0 0 0 0 0 0 0 0 0 0 0 0 0 0 0
0 0 0 0 0 0 0 0 0 0 0 0 0 0 0 0 0 0 0 0 0 0 0 0 0 0 0 0 0 0 0 0 0 0 0 0 0 0 0 0 0 0 0 0 0 0 0 0 0
0 0 0 0 0 0 0 0 0 0 0 0 0 0 0 0 0 0 0 0 0 0 0 0 0 0 0 0 0 0 0 0 0 0 0 0 0 0 0 0 0 0 0 0 0 0 0 0 0
0 0 0 0 0 0 0 0 0 0 0 0 0 0 0 0 0 0 0 0 0 0 0 0 0 0 0 0 0 0 0 0 0 0 0 0 0 0 0 0 0 0 0 0 0 0 0 0 0
0 0 0 0 0 0 0 0 0 0 0 0 0 0 0 0 0 0 0 0 0 0 0 0 0 0 0 0 0 0 0 0 0 0 0 0 0 0 0 0 0 0 0 0 0 0 0 0 0
0 0 0 0 0 0 0 0 0 0 0 0 0 0 0 0 0 0 0 0 0 0 0 0 0 0 0 0 0 0 0 0 0 0 0 0 0 0 0 0 0 0 0 0 0 0 0 0 0
0 0 0 0 0 0 0 0 0 0 0 0 0 0 0 0 0 0 0 0 0 0 0 0 0 0 0 0 0 0 0 0 0 0 0 0 0 0 0 0 0 0 0 0 0 0 0 0 0
0 0 0 0 0 0 0 0 0 0 0 0 0 0 0 0 0 0 0 0 0 0 0 0 0 0 0 0 0 0 0 0 0 0 0 0 0 0 0 0 0 0 0 0 0 0 0 0 0
0 0 0 0 0 0 0 0 0 0 0 0 0 0 0 0 0 0 0 0 0 0 0 0 0 0 0 0 0 0 0 0 0 0 0 0 0 0 0 0 0 0 0 0 0 0 0 0 0
0 0 0 0 0 0 0 0 0 0 0 0 0 0 0 0 0 0 0 0 0 0 0 1 0 0 0 0 0 0 0 0 0 0 0 0 0 0 0 0 0 0 0 0 0 0 0 0 0
0 0 0 0 0 0 0 0 0 0 0 0 0 0 0 0 0 0 0 0 0 0 0 0 0 0 0 0 0 0 0 0 0 0 0 0 0 0 0 0 0 0 0 0 0 0 0 0 0
0 0 0 0 0 0 0 0 0 0 0 0 0 0 0 0 0 0 0 0 0 0 0 0 0 0 0 0 0 0 0 0 0 0 0 0 0 0 0 0 0 0 0 0 0 0 0 0 0
0 0 0 0 0 0 0 0 0 0 0 0 0 0 0 0 0 0 0 0 0 0 0 0 0 0 0 0 0 0 0 0 0 0 0 0 0 0 0 0 0 0 0 0 0 0 0 0 0
0 0 0 0 0 0 0 0 0 0 0 0 0 0 0 0 0 0 0 0 0 0 0 0 0 0 0 0 0 0 0 0 0 0 0 0 0 0 0 0 0 0 0 0 0 0 0 0 0
0 0 0 0 0 0 0 0 0 0 0 0 0 0 0 0 0 0 0 0 0 0 0 0 0 0 0 0 0 0 0 0 0 0 0 0 0 0 0 0 0 0 0 0 0 0 0 0 0
Wind_Speed
7 5 2 4 3 2 9 8 3 2 3 3 2 3 3 5 4 4 1 6 9 14 16 18 19 19 18 18 18 18 18 18 18 18 18 18 18 18 18 18 18 17 17 17 17 17 17 17 17
3 3 4 3 3 7 8 7 8 7 5 4 4 2 2 3 1 1 2 4 11 13 13 15 18 19 19 18 18 19 19 19 18 18 18 18 18 18 18 18 18 17 17 17 17 16 16 16 15
4 2 3 2 6 9 7 3 5 6 6 4 3 3 2 2 1 1 1 6 10 11 10 12 17 19 19 18 19 19 19 19 18 18 18 18 18 18 18 18 17 17 17 17 16 16 15 14 13
3 4 3 2 10 8 5 4 4 6 5 3 1 4 4 2 1 1 4 8 9 8 8 12 16 18 18 18 18 19 19 19 18 18 17 18 18 18 18 17 17 17 16 16 16 15 14 12 11
4 3 1 5 8 6 5 7 7 6 5 5 2 4 5 3 1 5 6 7 8 7 7 10 15 17 18 18 18 18 19 19 18 18 18 18 18 18 18 17 17 17 17 16 16 14 13 11 11
3 3 3 7 7 5 5 5 5 6 6 6 3 4 5 1 2 4 5 5 6 7 7 9 14 15 16 17 17 17 18 18 18 18 18 18 18 18 18 18 17 17 17 16 15 14 12 11 10
4 3 4 5 5 6 6 3 4 5 6 5 3 3 5 2 1 1 3 4 6 6 7 6 9 10 14 15 15 16 16 16 16 16 16 16 16 17 18 17 17 17 16 15 14 13 11 10 10
4 3 3 4 5 6 4 3 4 4 6 4 3 3 4 4 4 1 2 2 5 5 6 6 7 7 8 10 13 14 14 15 15 14 14 14 15 16 16 15 15 16 15 14 13 12 11 9 8
3 2 5 5 5 5 3 4 5 4 4 5 4 4 4 5 3 2 2 1 3 5 4 6 6 7 7 8 11 11 12 13 13 12 14 13 9 10 11 12 14 14 14 14 13 11 10 7 6
3 4 7 5 4 5 6 6 6 5 6 5 4 5 5 4 3 2 3 4 5 6 5 5 6 7 7 7 7 6 7 7 7 7 9 8 7 7 9 12 13 14 13 12 12 10 8 5 3
5 7 6 7 7 7 8 7 5 5 8 6 6 7 5 5 4 4 5 5 5 6 6 6 5 6 7 5 6 4 4 5 6 8 9 8 7 6 6 6 7 8 9 6 7 5 3 3 2
5 7 8 5 5 6 7 6 7 8 11 7 7 6 4 6 6 5 5 4 5 5 5 5 6 5 7 6 5 5 4 4 5 7 9 8 6 6 6 5 5 5 4 5 4 3 3 3 3
5 6 7 7 7 7 8 9 8 11 11 8 7 6 6 7 7 5 4 4 4 5 5 4 5 5 6 6 6 6 5 5 6 7 8 8 7 8 7 6 5 5 4 5 5 4 4 3 3
5 6 7 7 7 6 8 10 7 11 8 6 7 7 7 7 7 6 5 5 5 5 5 5 5 5 5 6 6 6 6 6 6 7 8 9 7 8 8 7 7 6 6 5 5 5 5 4 3
3 5 7 5 5 4 4 8 9 10 6 6 7 7 6 6 6 7 6 5 5 5 5 5 5 4 5 6 8 6 6 6 6 6 8 9 9 9 8 8 7 7 6 6 4 4 3 3 3
2 2 4 5 2 3 2 8 7 4 3 5 6 5 5 6 5 4 4 4 4 5 5 5 5 5 5 5 6 6 7 7 6 6 8 10 10 10 8 8 8 7 7 6 5 5 4 4 3
2 2 4 6 3 1 2 8 7 3 3 5 5 5 5 5 4 4 4 4 3 3 4 5 5 6 6 6 5 6 7 7 6 6 7 9 10 10 8 8 8 8 7 6 6 5 4 4 4
3 3 4 5 4 2 3 8 10 6 4 5 5 4 4 4 5 4 4 3 3 3 4 4 5 6 6 4 4 5 6 6 6 6 7 10 9 10 9 7 8 9 7 6 6 6 5 4 5
3 3 6 7 4 3 6 9 11 8 4 4 3 3 3 4 4 3 2 2 2 3 4 5 5 6 5 4 4 5 6 6 6 6 8 10 10 10 9 7 8 8 8 8 8 5 6 4 4
3 4 6 6 4 2 4 8 8 6 4 3 3 3 3 3 2 1 1 1 3 4 4 4 5 5 6 5 4 4 5 5 5 5 6 9 10 10 9 8 8 9 7 8 7 6 4 3 4
3 4 4 5 5 3 3 6 5 6 4 4 3 3 3 2 2 2 2 2 2 3 4 4 4 5 5 6 3 3 4 3 4 4 5 7 9 10 9 10 8 8 9 8 8 7 7 5 4
4 4 4 4 3 4 2 4 6 6 7 7 5 4 4 4 3 2 2 2 2 3 3 4 4 4 4 4 4 6 6 6 5 5 5 6 8 9 9 9 9 9 8 8 8 7 5 7 5
5 4 4 3 2 3 2 1 6 5 6 8 7 5 4 4 4 4 3 1 1 2 2 2 2 3 3 3 4 5 5 4 4 4 5 6 6 8 8 9 8 8 8 8 8 7 6 5 5
2 2 2 1 1 2 2 2 4 4 5 7 7 7 6 6 5 5 4 2 1 1 1 1 2 2 2 4 4 5 6 6 6 5 6 6 5 6 8 8 7 8 7 9 9 8 8 7 6
3 3 3 4 3 2 1 1 3 5 5 4 5 6 6 6 6 6 6 4 3 3 1 0 2 1 1 3 4 5 5 5 6 6 6 6 5 5 7 7 7 7 8 8 8 8 8 8 8
1 3 3 2 2 3 3 1 4 4 5 5 5 5 6 6 6 7 6 5 3 3 2 1 1 0 0 1 3 3 3 3 4 5 5 6 5 6 7 7 7 7 8 8 8 7 7 7 8
1 0 2 3 1 2 3 3 3 4 6 7 7 8 7 6 6 6 7 6 5 4 3 2 2 1 0 1 2 3 3 3 4 5 5 4 4 4 6 6 6 7 8 8 8 7 8 7 7
1 1 2 2 1 1 3 3 3 5 5 5 6 7 7 7 6 7 6 7 6 5 5 3 2 2 2 1 1 0 2 3 3 4 4 5 5 5 6 6 6 7 8 8 8 7 7 8 7
2 1 1 1 2 2 2 5 3 2 2 3 4 5 6 7 7 7 6 6 6 6 7 6 4 3 2 2 2 2 1 1 3 4 5 5 5 6 6 6 6 6 7 8 7 7 8 8 7
1 1 2 2 1 1 1 5 3 0 1 2 3 5 6 7 6 7 7 7 7 7 7 7 5 3 3 3 2 2 1 1 1 2 3 4 5 6 6 6 6 6 7 8 9 9 9 9 9
Wind_Direction
347 348 39 55 67 214 234 234 237 251 240 223 245 229 217 214 197 217 283 133 137 153 162 163 163 161 159 157 154 151 148 147 146 144 143 141 138 136 135 133 131 127 124 122 118 115 113 112 110
353 0 52 71 160 218 244 231 236 249 265 308 298 287 286 256 247 106 87 140 145 152 160 163 163 162 161 159 157 155 154 152 151 149 148 145 143 141 138 136 133 129 124 121 119 118 116 114 111
348 37 86 125 202 215 229 234 233 268 286 293 297 296 253 246 304 150 191 143 143 150 156 161 163 162 162 160 159 159 158 157 155 153 152 149 147 145 142 138 133 129 125 122 122 121 119 115 109
48 47 59 199 231 230 236 282 302 301 303 294 286 293 286 297 246 161 138 132 137 149 157 161 162 164 163 162 162 163 163 161 159 157 155 152 150 147 144 138 133 129 127 126 126 125 123 116 109
65 86 158 242 244 249 261 281 302 294 286 290 309 280 279 309 48 115 119 133 137 147 157 164 161 164 165 165 166 165 165 164 162 160 158 156 153 149 144 138 136 134 132 131 131 131 127 119 110
69 90 191 238 248 258 261 263 285 286 285 287 286 271 262 306 80 119 120 136 138 149 155 167 165 163 165 167 166 166 165 165 164 163 161 157 153 149 145 141 140 139 138 136 135 135 132 123 113
119 140 219 241 258 267 257 265 254 263 279 274 245 256 275 319 13 112 113 131 138 147 150 163 168 166 166 163 164 166 165 166 166 165 161 156 152 149 147 145 144 143 141 139 139 140 137 129 120
136 134 238 243 244 256 270 286 266 269 272 267 231 227 262 300 325 22 75 105 137 143 151 158 167 164 167 166 164 164 165 165 165 163 158 153 151 150 148 147 146 145 144 143 144 145 143 133 122
115 152 231 233 234 252 299 301 299 277 259 260 239 243 271 305 330 31 85 83 146 151 156 157 168 165 163 167 167 162 161 162 160 157 152 149 150 149 149 148 147 146 147 147 149 150 146 135 122
139 204 230 231 238 264 286 287 299 304 287 276 280 287 303 320 326 287 187 189 184 173 172 160 168 169 161 167 161 162 162 159 156 154 153 149 147 150 150 148 148 148 149 151 154 155 149 134 118
185 216 242 251 256 266 274 279 277 270 272 260 260 281 300 301 295 271 218 205 200 181 175 170 164 168 164 163 161 161 160 159 155 154 155 150 147 146 145 147 147 148 149 149 154 150 149 151 147
221 241 243 253 259 266 267 267 267 251 254 257 249 249 266 282 280 269 248 216 200 187 175 174 166 167 168 161 163 160 160 164 164 163 159 156 154 153 155 155 155 156 157 155 156 159 169 176 178
240 262 258 260 267 261 264 259 262 261 265 268 266 265 250 261 269 270 255 234 200 188 168 158 161 163 171 163 167 166 168 171 170 168 167 162 161 162 161 161 162 164 162 164 166 172 179 185 187
246 266 279 275 269 262 256 264 261 265 271 265 263 262 260 257 253 257 242 220 202 186 170 159 159 161 168 170 168 166 170 172 172 174 173 169 165 168 167 167 170 172 173 173 174 181 183 187 177
281 296 298 268 250 251 265 272 246 263 274 266 269 264 266 261 248 242 232 216 202 189 170 166 161 159 167 178 174 166 169 170 178 177 174 175 172 171 173 172 175 178 176 173 174 179 176 176 170
301 312 303 288 247 237 223 272 273 278 278 271 274 274 268 263 248 235 234 234 210 194 176 173 171 167 174 182 184 173 173 172 181 181 177 177 177 173 174 176 180 179 175 175 177 175 173 176 166
343 299 281 298 267 237 215 271 288 296 273 276 277 269 261 259 252 232 223 227 221 201 188 180 178 173 179 181 186 182 175 177 178 183 181 180 178 177 176 180 182 178 177 180 183 176 170 169 166
260 269 279 284 302 298 269 275 290 296 268 268 272 272 262 254 248 228 217 224 216 220 201 184 180 176 177 178 184 180 175 180 178 184 189 182 181 179 177 178 183 180 179 183 180 172 170 167 163
242 258 280 285 292 296 279 286 295 300 295 290 288 286 277 262 266 250 218 228 213 213 207 198 187 178 173 175 189 185 184 183 182 184 193 187 184 181 180 181 181 182 185 185 177 167 167 165 149
252 274 291 296 307 294 298 306 308 315 315 308 310 310 289 271 295 282 261 236 219 213 210 208 199 186 181 186 190 192 178 181 181 178 190 190 184 184 185 183 184 182 182 181 177 164 162 168 166
260 247 264 282 316 314 314 322 333 330 354 6 359 336 312 283 281 281 257 239 221 222 206 201 200 203 194 188 178 182 165 157 170 181 191 194 186 186 188 188 185 184 182 185 183 176 170 173 184
274 252 251 281 333 315 353 315 323 342 1 6 358 348 339 342 344 314 282 239 213 214 212 208 191 192 185 177 184 187 183 184 187 182 190 191 186 186 189 188 186 189 185 185 186 183 179 171 182
246 263 259 259 260 310 316 235 308 348 354 351 354 360 355 359 2 350 336 301 245 217 204 203 176 188 178 178 190 191 192 192 181 176 188 194 188 186 184 187 187 190 188 187 186 184 183 182 184
271 329 324 2 84 321 291 174 315 338 333 340 352 3 8 6 1 1 2 9 349 277 205 180 143 160 184 190 196 191 195 193 185 188 194 197 193 191 187 188 191 193 190 190 191 189 187 191 189
44 60 24 7 11 275 335 108 283 312 336 344 354 358 1 6 8 11 10 8 358 354 350 138 139 150 183 194 195 190 194 196 195 194 198 199 194 196 192 192 195 198 195 192 190 189 192 193 192
340 121 142 183 249 298 355 315 278 320 352 8 15 2 4 10 12 14 9 5 1 3 11 21 112 151 215 209 194 179 187 193 204 207 203 204 201 198 191 191 198 204 198 193 190 193 197 196 198
54 2 180 136 350 323 320 305 299 355 9 12 11 14 14 12 8 8 7 6 10 11 11 25 53 43 57 247 203 185 193 199 205 215 207 207 206 200 194 193 198 206 201 197 192 199 200 197 200
147 172 82 106 121 324 314 300 296 324 348 356 1 4 5 6 6 4 3 6 11 16 13 19 34 43 31 352 304 251 212 217 213 214 216 213 209 201 195 202 204 209 203 199 200 198 198 195 200
2 28 79 110 149 149 279 283 270 261 309 341 351 356 358 1 360 359 3 8 11 14 17 13 14 15 11 360 356 8 339 266 228 216 222 213 208 202 200 204 206 210 205 199 200 200 195 195 197
192 210 148 143 235 153 177 274 321 294 350 4 356 359 359 359 358 5 9 10 13 15 12 9 5 11 11 6 8 0 340 327 297 246 237 217 205 205 205 204 207 212 208 201 200 202 199 198 200